Regional Weather Roundup
Issued by NWS

Home | Current Version | Previous Version | Graphics & Text | Print | Product List | Glossary On
Versions: 1 2 3 4 5 6 7 8 9 10 11 12 13 14 15 16 17 18 19 20 21 22 23 24 25 26 27 28 29 30 31 32 33 34 35 36 37 38 39 40 41 42 43 44 45 46 47 48 49 50
000
ASUS43 KDMX 010707
RWRIA

WEATHER ROUNDUP FOR IOWA
NATIONAL WEATHER SERVICE DES MOINES IA
200 AM CDT TUE SEP 01 2015

NOTE: "FAIR" INDICATES FEW OR NO CLOUDS BELOW 12,000 FEET WITH NO
SIGNIFICANT WEATHER AND/OR OBSTRUCTIONS TO VISIBILITY.

* - THESE STATIONS ARE NOT NWS STATIONS...THUS NOT UNDER NWS
QUALITY CONTROL.  THEY ALSO DO NOT REPORT WEATHER SUCH
AS PRECIPITATION OR FOG.

IAZ001>003-012>014-020>022-031>034-043>046-010800-
   NORTHWEST IOWA

CITY           SKY/WX    TMP DP  RH WIND       PRES   REMARKS
CARROLL *      FOG       63  63 100 CALM      29.94F VSB 1/4
CHEROKEE *     CLEAR     66  66 100 CALM      29.93F
DENISON *      MOCLDY    70  68  94 CALM      29.92S
LE MARS *      CLEAR     68  66  94 SE3       29.92F
ORANGE CITY *  CLEAR     70  66  88 CALM      29.93S
SHELDON *      CLEAR     66  64  94 SE3       29.92S
SIOUX CITY     CLEAR     69  64  84 E9        29.90F
SPENCER        CLEAR     65  62  90 SE3       29.94S FOG
STORM LAKE *   CLEAR     66  66 100 S7        29.95F
$$

IAZ055>058-069>071-079>083-090>094-010800-
   SOUTHWEST IOWA

CITY           SKY/WX    TMP DP  RH WIND       PRES   REMARKS
ATLANTIC *     CLOUDY    68  68 100 S5        29.95S
AUDUBON *      CLEAR     63  61  94 S5        29.96F
CLARINDA *     CLEAR     66  66 100 CALM      29.98S
COUNCIL BLFS * CLEAR     72  70  94 S8        29.95S
CRESTON *      CLEAR     70  68  94 S8        29.99F
LAMONI         CLEAR     72  68  87 S7        29.99S
RED OAK *      CLEAR     70  70 100 MISG      29.96S
SHENANDOAH *   CLEAR     70  70 100 SE5       29.96S
$$

IAZ047>049-059>061-072>074-084-010800-
   CENTRAL IOWA

CITY           SKY/WX    TMP DP  RH WIND       PRES   REMARKS
AMES           FOG       66  66 100 SE5       29.96S VSB 1
ANKENY *       PTCLDY    70  70 100 CALM      29.95F FOG
CHARITON *     CLEAR     70  68  94 S7        29.99S
DES MOINES     PTCLDY    73  68  84 S8        29.95F
GRINNELL*      PTCLDY    70  66  88 CALM      29.99F
KNOXVILLE *    PTCLDY    72  68  88 S7        29.97S
MARSHALLTOWN     N/A     68  67  96 SE5       29.96F FOG
PELLA *        PTCLDY    70  70 100 SE3       29.99S
PERRY *        FOG       68  66  94 SE5       29.95F VSB 1
$$

IAZ004>006-015-016-023>025-035-036-010800-
   NORTH CENTRAL IOWA

CITY           SKY/WX    TMP DP  RH WIND       PRES   REMARKS
ALGONA *       MOCLDY    68  66  94 S7        29.95S
CLARION *      CLEAR     68  68 100 SE7       29.95F FOG
ESTHERVILLE    CLEAR     63  62  97 S5        29.94S
FORT DODGE *   CLEAR     68  66  94 SE5       29.95F
MASON CITY     FOG       65  65 100 S3        29.97F VSB 1/4
FOREST CITY *  FOG       63  63 100 CALM      29.96S VSB 0
IOWA FALLS *   CLOUDY    70  68  94 S3        29.97F FOG
$$

IAZ007>011-017>019-026>030-037>042-050>054-066-010800-
   NORTHEAST IOWA

CITY           SKY/WX    TMP DP  RH WIND       PRES   REMARKS
CEDAR RAPIDS   CLEAR     71  71 100 S6        29.98F FOG
CHARLES CITY * FOG       68  68 100 S5        29.98S VSB 0
CLINTON *      PTCLDY    72  70  94 S5        30.03S
DECORAH *      CLOUDY    72  72 100 S6        29.97S
DUBUQUE        CLEAR     72  70  93 S7        30.01S FOG
MONTICELLO *   CLEAR     72  70  94 CALM      29.99S
OELWEIN *      CLEAR     70  70 100 S6        29.99S FOG
WATERLOO       CLEAR     71  70  96 S5        29.96S FOG
$$

IAZ064-065-067-068-078-010800-
   EAST CENTRAL IOWA

CITY           SKY/WX    TMP DP  RH WIND       PRES   REMARKS
DAVENPORT      CLEAR     75  70  84 S9        30.01S
IOWA CITY      CLEAR     71  69  93 CALM      29.99F FOG
MT. PLEASANT * CLEAR     72  68  88 S3        30.01R FOG
MUSCATINE *    CLEAR     73  70  88 S5        30.00S
QUAD CITIES    CLEAR     75  70  84 S6        30.00S
$$

IAZ062-063-075>077-085>089-095>099-010800-
   SOUTHEAST IOWA

CITY           SKY/WX    TMP DP  RH WIND       PRES   REMARKS
BURLINGTON     CLEAR     74  72  93 S6        30.01R
FAIRFIELD *    PTCLDY    73  68  83 S6        30.00S
FORT MADISON * CLEAR     73  73 100 S7        30.02S
KEOKUK *       CLEAR     77  72  83 S7        30.00S
OSKALOOSA *      N/A     70  68  94 SE5       29.99F
CENTERVILLE *  CLEAR     68  66  94 S3        30.02S
OTTUMWA        CLEAR     70  69  97 S7        29.98S
WASHINGTON *     N/A    N/A N/A N/A MISG        N/A
$$

ABBREVIATIONS USED IN REMARKS
   TC - TEMPERATURES IN CELSIUS
  WCI - WIND CHILL INDEX
   HX - HEAT INDEX
  VSB - VISIBILITY
$$




USA.gov is the U.S. government's official web portal to all federal, state and local government web resources and services.